Regional Weather Roundup
Issued by NWS

Home | Current Version | Previous Version | Graphics & Text | Print | Product List | Glossary On
Versions: 1 2 3 4 5 6 7 8 9 10 11 12 13 14 15 16 17 18 19 20 21 22 23 24 25 26 27 28 29 30 31 32 33 34 35 36 37 38 39 40 41 42 43 44 45 46 47 48 49 50
000
ASUS43 KMPX 021901
RWRMN
WEATHER ROUNDUP FOR MINNESOTA
NATIONAL WEATHER SERVICE TWIN CITIES/CHANHASSEN MN
200 PM CDT THU JUL 02 2015


NOTE: "FAIR" INDICATES FEW OR NO CLOUDS BELOW 12,000 FEET WITH NO
SIGNIFICANT WEATHER AND/OR OBSTRUCTIONS TO VISIBILITY. N/A MEANS
CURRENT SKY AND/OR WEATHER CONDITIONS ARE NOT AVAILABLE.

MNZ060>063-068>070-022000-
   Twin Cities Metro

CITY           SKY/WX    TMP DP  RH WIND       PRES   REMARKS
TWIN CITIES    MOSUNNY   74  49  41 VRB6      30.01F
ST PAUL        SUNNY     75  54  47 SE8       30.01F
CRYSTAL        SUNNY     77  52  41 VRB7      29.99F
BLAINE         MOSUNNY   77  54  44 E7        30.01F
LAKEVILLE      SUNNY     73  55  53 SE5       30.01F
EDEN PRAIRIE   SUNNY     74  55  51 SE6       30.00F
SOUTH ST PAUL  SUNNY     75  52  45 SE6       30.00F
LAKE ELMO      FAIR      73  54  49 E7        30.02F
$$
MNZ001>005-007-008-013>017-022>024-027-028-022000-
   Northwest Minnesota

CITY           SKY/WX    TMP DP  RH WIND       PRES   REMARKS
BEMIDJI        MOSUNNY   75  56  51 SW14      29.99F
HALLOCK        MOSUNNY   75  64  69 S9        29.91F
ROSEAU         MOSUNNY   73  61  64 SW9G16    29.94F
WARROAD        MOSUNNY   73  61  64 SW9       29.94F
THIEF RVR FALL SUNNY     73  55  53 SW14      29.97S
CROOKSTON      SUNNY     75  57  53 SW15      29.96S
FOSSTON        SUNNY     73  55  53 S14       29.99S
DETROIT LAKES  SUNNY     72  54  53 S8        30.02S
MOORHEAD       SUNNY     75  55  50 S9        29.98F
PARK RAPIDS    SUNNY     76  55  48 SW9       30.01F
$$
MNZ006-009>011-018-025>026-022000-
   North Central Minnesota

CITY           SKY/WX    TMP DP  RH WIND       PRES   REMARKS
BAUDETTE       MOSUNNY   75  51  43 SW8       29.95S
FLAG ISLAND    MOSUNNY   72  59  64 SW10      29.91F
INTL FALLS     MOSUNNY   77  59  53 W7        29.95F
WASKISH        SUNNY     73  59  60 W9        29.98S
BIG FORK       SUNNY     75  57  53 S13       29.99F
LONGVILLE      SUNNY     75  57  53 SW8       30.01S
GRAND RAPIDS   MOSUNNY   73  57  56 SW6       30.01S
CRANE LAKE     MOSUNNY   73  59  60 W3        29.97F
ORR              N/A    N/A N/A N/A W8        29.96F
COOK           MOSUNNY   75  57  53 SW8       29.98F
$$
MNZ012-019>021-037-022000-
   Northeast Minnesota

CITY           SKY/WX    TMP DP  RH WIND       PRES   REMARKS
DULUTH         CLOUDY    76  58  53 W9        30.01S
ELY            PTSUNNY   73  59  60 W7        29.98S
HIBBING        PTSUNNY   75  57  53 CALM      30.00F
DULUTH HARBOR  MOSUNNY   79  61  53 S6        29.99F
SILVER BAY     MOSUNNY   75  61  60 S10       29.96F
GRAND MARAIS     N/A     55  50  83 SW6       29.97S
G MARAIS ARPRT PTSUNNY   66  55  68 SW7       30.01S
$$
MNZ029>031-032-039>041-046>048-054>057-064-022000-
   West Central Minnesota

CITY           SKY/WX    TMP DP  RH WIND       PRES   REMARKS
FERGUS FALLS   MOSUNNY   73  55  53 SW7       30.00F
WHEATON        PTSUNNY   72  48  43 S8        30.01S
MORRIS         PTSUNNY   73  46  38 S9        30.00F
ALEXANDRIA     MOSUNNY   72  54  53 S8        30.03F
ELBOW LAKE     FAIR      72  52  50 SE8       30.01S
WADENA           N/A     73  54  49 S7        30.01F
GLENWOOD       MOSUNNY   72  54  53 SE8       30.03S
APPLETON       PTSUNNY   73  45  35 S6        30.00F
BENSON         PTSUNNY   72  48  43 S6        30.02R
ORTONVILLE     PTSUNNY   72  46  40 S5        30.00F
MADISON        CLOUDY    72  48  43 S7        30.01S
WILLMAR        FAIR      73  52  46 SE5       30.03S
$$
MNZ033>034-036-042>043-049>051-058-059-022000-
   Central Minnesota

CITY           SKY/WX    TMP DP  RH WIND       PRES   REMARKS
ST CLOUD       SUNNY     75  54  47 S6        30.01F
SAUK CENTRE    FAIR      72  56  57 SE6       30.03S
PAYNESVILLE    MOSUNNY   70  52  53 E6        30.03S
AITKIN         MOSUNNY   77  57  50 S6        30.00S
PINE RIVER       N/A     73  57  56 SW7       30.04F
BRAINERD       MOSUNNY   76  54  46 VRB7      30.01F
STAPLES        SUNNY     73  54  49 S9        30.01F
LONG PRAIRIE   FAIR      72  55  56 SE8       30.03S
LITTLE FALLS   SUNNY     73  50  43 E3        30.01F
LITCHFIELD     MOSUNNY   73  55  53 SE3       30.03S
BUFFALO        MOSUNNY   74  53  46 NE3       30.02S
MAPLE LAKE     MOSUNNY   75  58  55 CALM      30.03R
$$
MNZ037-044-045-052-053-022000-
   East Central Minnesota

CITY           SKY/WX    TMP DP  RH WIND       PRES   REMARKS
PRINCETON      MOSUNNY   79  55  44 S3        30.01F
MORA           SUNNY     73  54  49 CALM      30.03S
CAMBRIDGE      SUNNY     77  57  50 CALM      30.00S
RUSH CITY      SUNNY     75  55  49 E6        30.01F
MOOSE LAKE     PTSUNNY   75  63  64 S8        30.00S
HINCKLEY       MOCLDY    75  55  50 CALM      30.01S
CLOQUET        CLOUDY    73  55  53 SW6       30.01S
MCGREGOR       MOSUNNY   77  55  47 SW3       30.02S
$$
MNZ071>073-080-081-089-090-097-098-022000-
   Southwest Minnesota

CITY           SKY/WX    TMP DP  RH WIND       PRES   REMARKS
MONTEVIDEO     PTSUNNY   75  50  41 SE5       30.02S
GRANITE FALLS  PTSUNNY   71  47  42 CALM      30.02F
CANBY          CLOUDY    69  54  58 SE5       30.02S
MARSHALL       PTSUNNY   72  48  43 S8        30.01R
REDWOOD FALLS  MOSUNNY   75  47  36 SE8       30.00F
OLIVIA         MOSUNNY   72  50  46 S6        30.01S
PIPESTONE      PTSUNNY   70  43  37 SE5       30.01S
WINDOM         MOSUNNY   73  46  38 E5        30.01F
WORTHINGTON    PTSUNNY   68  50  52 E7        30.02S
JACKSON        MOSUNNY   72  52  49 SE8       30.02S
TRACY          PTSUNNY   71  50  46 SE6       30.02S
SLAYTON        PTSUNNY   70  50  49 E3        30.03S
$$
MNZ065>067-074>077-082>085-091>093-022000-
   South Central Minnesota

CITY           SKY/WX    TMP DP  RH WIND       PRES   REMARKS
MANKATO        SUNNY     72  50  46 S9        30.01F
NEW ULM        SUNNY     72  52  49 SE8       30.01F
ST JAMES       MOSUNNY   73  52  46 SE7       30.02S
GLENCOE        MOSUNNY   75  56  50 SE8       30.01S
FARIBAULT      SUNNY     73  54  49 SE3       30.02F
OWATONNA       SUNNY     73  52  46 SE9       30.02S
WASECA         SUNNY     72  52  49 E5        30.03F
ALBERT LEA     SUNNY     73  52  46 E7        30.02S
$$
MNZ078>079-086>088-094>096-022000-
   Southeast Minnesota

CITY           SKY/WX    TMP DP  RH WIND       PRES   REMARKS
ROCHESTER      SUNNY     72  53  51 SE6       30.03S
RED WING       SUNNY     75  46  35 E7        30.00F
DODGE CENTER   MOSUNNY   72  54  53 SE7       30.03S
WINONA         SUNNY     73  54  49 CALM      30.02S
AUSTIN         SUNNY     73  52  46 S5        30.02S
PRESTON        SUNNY     70  53  54 NE6       30.04S
$$
ABBREVIATIONS USED IN REMARKS
   TC - TEMPERATURES IN CELSIUS
  WCI - WIND CHILL INDEX
   HX - HEAT INDEX
  VSB - VISIBILITY
$$



USA.gov is the U.S. government's official web portal to all federal, state and local government web resources and services.